KE8WAY Weather Reports


time (UTC)temp
C
wind
direction
speed
KPH
gust
KPH
rain 1hr
cm
rain 24hr
cm
rain mn
cm
humidity
%
barometer
mb
20260903043545 25 220 4.8 4.8 0.00 0.00 0.00 88 1012.7
20260903043045 26 224 4.8 4.8 0.00 0.00 0.00 87 1012.6
20260903042539 26 235 4.8 4.8 0.00 0.00 0.00 85 1012.6
20260903042035 26 271 4.8 8.0 0.00 0.00 0.00 86 1012.7
20260903041532 25 232 3.2 3.2 0.00 0.00 0.00 87 1012.5
20260903041027 26 227 4.8 4.8 0.00 0.00 0.00 87 1012.6
20260903040526 26 219 4.8 4.8 0.00 0.00 0.00 87 1012.7
20260903040023 26 224 8.0 9.7 0.00 0.00 0.00 85 1012.6
20260903035518 26 233 11.3 12.9 0.00 0.00 0.00 84 1012.5
20260903035014 26 234 11.3 12.9 0.00 0.00 0.00 83 1012.7
20260903034514 26 213 11.3 12.9 0.00 0.00 0.00 83 1012.4
20260903034008 26 210 9.7 9.7 0.00 0.00 0.00 84 1012.2
20260903033503 26 203 9.7 11.3 0.00 0.00 0.00 84 1012.3
20260903032958 26 218 11.3 11.3 0.00 0.00 0.00 85 1012.1
20260903032454 26 215 9.7 11.3 0.00 0.00 0.00 85 1012.1
20260903031948 26 219 9.7 11.3 0.00 0.00 0.00 85 1012.0
20260903031443 26 210 12.9 14.5 0.00 0.00 0.00 84 1012.0
20260903030938 26 224 11.3 14.5 0.00 0.00 0.00 85 1011.9
20260903030434 26 204 14.5 14.5 0.00 0.00 0.00 85 1011.8
20260903025930 26 210 12.9 14.5 0.00 0.00 0.00 85 1011.6
20260903025426 26 212 12.9 12.9 0.00 0.00 0.00 85 1011.8
20260903024921 26 227 11.3 11.3 0.00 0.00 0.00 85 1012.0
20260903024420 26 222 9.7 9.7 0.00 0.00 0.00 84 1012.1
20260903023914 26 211 9.7 11.3 0.00 0.00 0.00 85 1012.1
20260903023405 26 213 11.3 12.9 0.00 0.00 0.00 84 1012.3
20260903022901 26 215 12.9 14.5 0.00 0.00 0.00 83 1012.5
20260903022359 26 211 11.3 12.9 0.00 0.00 0.00 84 1012.6
20260903021858 26 211 11.3 12.9 0.00 0.00 0.00 84 1012.4
20260903021354 27 215 11.3 12.9 0.00 0.00 0.00 83 1012.5
20260903020853 27 214 12.9 14.5 0.00 0.00 0.00 82 1012.7
20260903020349 27 216 12.9 14.5 0.00 0.00 0.00 81 1012.5
20260903015843 27 214 16.1 17.7 0.00 0.00 0.00 81 1012.5
20260903015338 27 206 14.5 16.1 0.00 0.00 0.00 80 1012.6
20260903014833 27 202 16.1 17.7 0.00 0.00 0.00 80 1012.4
20260903014328 27 216 14.5 16.1 0.00 0.00 0.00 80 1012.5
20260903013823 27 211 14.5 16.1 0.00 0.00 0.00 80 1012.3
20260903013322 27 224 16.1 17.7 0.00 0.00 0.00 80 1012.6
20260903012821 27 211 14.5 16.1 0.00 0.00 0.00 80 1012.3
20260903012316 27 205 12.9 16.1 0.00 0.00 0.00 80 1012.3
20260903011815 27 212 14.5 16.1 0.00 0.00 0.00 80 1012.4
20260903011315 27 230 14.5 16.1 0.00 0.00 0.00 79 1012.2
20260903010810 27 212 14.5 16.1 0.00 0.00 0.00 79 1012.4
20260903010306 27 219 12.9 14.5 0.00 0.00 0.00 79 1012.3
20260903005804 27 213 12.9 16.1 0.00 0.00 0.00 80 1012.2
20260903005259 27 197 11.3 11.3 0.00 0.00 0.00 80 1012.0
20260903004755 27 213 11.3 11.3 0.00 0.00 0.00 79 1012.2
20260903004250 27 206 11.3 11.3 0.00 0.00 0.00 79 1012.3
20260903003746 27 203 11.3 14.5 0.00 0.00 0.00 79 1012.2
20260903003240 27 216 11.3 12.9 0.00 0.00 0.00 79 1012.0
20260903002735 27 206 9.7 11.3 0.00 0.00 0.00 80 1012.0
20260903002229 27 194 11.3 11.3 0.00 0.00 0.00 80 1012.2
20260903001725 27 207 9.7 9.7 0.00 0.00 0.00 79 1012.2
20260903001218 27 213 9.7 11.3 0.00 0.00 0.00 79 1012.3
20260903000714 27 217 8.0 9.7 0.00 0.00 0.00 78 1012.4
20260903000208 28 217 9.7 11.3 0.00 0.00 0.00 78 1012.1
20260902235706 28 217 9.7 11.3 0.00 0.00 0.00 76 1012.1
20260902235202 29 228 12.9 12.9 0.00 0.00 0.00 74 1012.4
20260902234702 29 213 11.3 12.9 0.00 0.00 0.00 74 1012.3
20260902234200 29 219 12.9 12.9 0.00 0.00 0.00 73 1012.6
20260902233655 30 220 12.9 14.5 0.00 0.00 0.00 73 1012.3
20260902233155 30 214 12.9 14.5 0.00 0.00 0.00 72 1012.3
20260902232654 30 219 12.9 12.9 0.00 0.00 0.00 71 1012.2
20260902232153 30 240 11.3 12.9 0.00 0.00 0.00 70 1012.3
20260902231647 30 209 16.1 17.7 0.00 0.00 0.00 69 1012.3
20260902231142 30 216 14.5 17.7 0.00 0.00 0.00 68 1012.1
20260902230638 30 224 14.5 16.1 0.00 0.00 0.00 68 1012.2
20260902230137 31 226 12.9 14.5 0.00 0.00 0.00 68 1012.3
20260902225632 31 215 16.1 17.7 0.00 0.00 0.00 66 1012.3
20260902225131 31 228 11.3 14.5 0.00 0.00 0.00 67 1012.4
20260902224630 31 205 9.7 9.7 0.00 0.00 0.00 68 1012.4
20260902224126 31 228 14.5 16.1 0.00 0.00 0.00 66 1012.1
20260902223622 31 206 19.3 22.5 0.00 0.00 0.00 64 1012.2
20260902223121 31 225 14.5 16.1 0.00 0.00 0.00 65 1012.2
20260902222620 31 211 17.7 17.7 0.00 0.00 0.00 64 1012.0
20260902222119 31 221 19.3 20.9 0.00 0.00 0.00 63 1012.2
20260902221613 31 217 17.7 20.9 0.00 0.00 0.00 63 1012.1
20260902221108 32 224 20.9 22.5 0.00 0.00 0.00 62 1012.2
20260902220604 32 210 16.1 16.1 0.00 0.00 0.00 64 1012.1
20260902220058 32 216 16.1 16.1 0.00 0.00 0.00 62 1012.3
20260902215555 32 219 19.3 22.5 0.00 0.00 0.00 61 1012.5
20260902215049 32 225 22.5 24.1 0.00 0.00 0.00 60 1012.2
20260902214544 32 213 22.5 24.1 0.00 0.00 0.00 60 1012.3
20260902214043 32 220 20.9 22.5 0.00 0.00 0.00 60 1012.2
20260902213539 32 227 16.1 17.7 0.00 0.00 0.00 62 1012.5
20260902213038 32 219 20.9 22.5 0.00 0.00 0.00 63 1012.5
20260902212534 32 207 22.5 24.1 0.00 0.00 0.00 61 1012.6
20260902212030 32 207 11.3 12.9 0.00 0.00 0.00 67 1012.5
20260902211526 32 216 14.5 14.5 0.00 0.00 0.00 63 1012.4
20260902211020 32 215 12.9 16.1 0.00 0.00 0.00 66 1012.3
20260902210515 32 233 19.3 22.5 0.00 0.00 0.00 62 1012.6
20260902210014 32 220 19.3 22.5 0.00 0.00 0.00 61 1012.5
20260902205508 32 209 17.7 20.9 0.00 0.00 0.00 62 1012.6
20260902205004 32 228 20.9 25.7 0.00 0.00 0.00 60 1012.6
20260902204503 32 235 22.5 27.4 0.00 0.00 0.00 60 1012.8
20260902203959 33 230 27.4 29.0 0.00 0.00 0.00 59 1012.7
20260902203454 33 222 22.5 24.1 0.00 0.00 0.00 60 1012.8
20260902202953 33 219 19.3 20.9 0.00 0.00 0.00 60 1012.8
20260902202449 32 219 19.3 22.5 0.00 0.00 0.00 62 1013.1
20260902201946 33 207 12.9 14.5 0.00 0.00 0.00 64 1012.8
20260902201441 33 222 17.7 20.9 0.00 0.00 0.00 63 1012.9
20260902200940 33 216 20.9 22.5 0.00 0.00 0.00 60 1013.1
20260902200435 33 234 20.9 25.7 0.00 0.00 0.00 60 1013.0
20260902195931 33 215 16.1 17.7 0.00 0.00 0.00 62 1013.3
20260902195426 33 201 11.3 12.9 0.00 0.00 0.00 67 1013.0
20260902194920 33 232 14.5 16.1 0.00 0.00 0.00 64 1013.3
20260902194419 33 221 20.9 22.5 0.00 0.00 0.00 61 1013.3
20260902193914 32 225 17.7 20.9 0.00 0.00 0.00 63 1013.3
20260902193411 32 214 24.1 25.7 0.00 0.00 0.00 62 1013.1
20260902192909 32 218 17.7 20.9 0.00 0.00 0.00 64 1013.4
20260902192408 32 218 20.9 25.7 0.00 0.00 0.00 62 1013.3
20260902191903 32 227 14.5 16.1 0.00 0.00 0.00 66 1013.4
20260902191359 32 221 19.3 22.5 0.00 0.00 0.00 63 1013.4
20260902190858 32 229 17.7 22.5 0.00 0.00 0.00 65 1013.6
20260902190353 32 215 20.9 25.7 0.00 0.00 0.00 63 1013.6
20260902185849 32 223 14.5 14.5 0.00 0.00 0.00 67 1013.6
20260902185345 32 223 16.1 17.7 0.00 0.00 0.00 65 1013.8
20260902184840 32 240 17.7 17.7 0.00 0.00 0.00 63 1013.8
20260902184335 32 227 14.5 17.7 0.00 0.00 0.00 67 1013.9
20260902183825 32 219 17.7 20.9 0.00 0.00 0.00 65 1013.6
20260902183321 32 224 16.1 17.7 0.00 0.00 0.00 66 1013.9
20260902182817 32 207 12.9 16.1 0.00 0.00 0.00 67 1013.8
20260902182313 32 218 14.5 14.5 0.00 0.00 0.00 66 1013.8
20260902181809 32 226 14.5 16.1 0.00 0.00 0.00 68 1013.9
20260902181304 32 234 16.1 17.7 0.00 0.00 0.00 64 1013.8
20260902180758 32 221 20.9 24.1 0.00 0.00 0.00 62 1014.1
20260902180254 32 223 16.1 17.7 0.00 0.00 0.00 65 1014.0
20260902175749 32 232 16.1 17.7 0.00 0.00 0.00 66 1013.8
20260902175245 32 206 17.7 20.9 0.00 0.00 0.00 65 1013.9
20260902174740 32 235 17.7 17.7 0.00 0.00 0.00 64 1014.2
20260902174236 32 191 16.1 17.7 0.00 0.00 0.00 67 1014.6
20260902173731 31 203 14.5 14.5 0.00 0.00 0.00 67 1014.6
20260902173226 31 216 14.5 16.1 0.00 0.00 0.00 68 1014.3
20260902172720 32 222 11.3 14.5 0.00 0.00 0.00 69 1014.6
20260902172220 32 241 14.5 14.5 0.00 0.00 0.00 69 1014.6
20260902171715 31 220 11.3 11.3 0.00 0.00 0.00 70 1014.6
20260902171210 31 237 17.7 20.9 0.00 0.00 0.00 66 1014.5
20260902170707 31 206 16.1 16.1 0.00 0.00 0.00 70 1014.8
20260902170202 31 225 14.5 14.5 0.00 0.00 0.00 72 1014.9
20260902165656 31 211 14.5 16.1 0.00 0.00 0.00 71 1014.9
20260902165150 31 221 16.1 17.7 0.00 0.00 0.00 70 1014.8
20260902164646 31 217 12.9 14.5 0.00 0.00 0.00 72 1015.1
20260902164145 31 236 11.3 14.5 0.00 0.00 0.00 73 1015.1
20260902163640 31 191 17.7 20.9 0.00 0.00 0.00 72 1014.9
20260902163139 31 200 17.7 20.9 0.00 0.00 0.00 72 1015.1
20260902162638 31 234 16.1 17.7 0.00 0.00 0.00 71 1015.1
20260902162133 30 229 14.5 16.1 0.00 0.00 0.00 70 1015.1
20260902161628 30 230 9.7 11.3 0.00 0.00 0.00 71 1015.4
20260902161124 30 223 14.5 14.5 0.00 0.00 0.00 74 1015.4
20260902160620 30 209 11.3 12.9 0.00 0.00 0.00 75 1015.3
20260902160115 30 219 11.3 12.9 0.00 0.00 0.00 75 1015.3
20260902155613 30 198 9.7 11.3 0.00 0.00 0.00 75 1015.2
20260902155112 30 209 6.4 8.0 0.00 0.00 0.00 77 1015.2
20260902154608 29 215 11.3 12.9 0.00 0.00 0.00 76 1015.3
20260902154102 29 217 11.3 12.9 0.00 0.00 0.00 75 1015.4
20260902153600 29 230 8.0 11.3 0.00 0.00 0.00 77 1015.3
20260902153056 29 247 8.0 9.7 0.00 0.00 0.00 75 1015.4
20260902152553 29 239 11.3 14.5 0.00 0.00 0.00 75 1015.1
20260902152048 29 229 11.3 12.9 0.00 0.00 0.00 76 1015.2
20260902151544 29 224 8.0 9.7 0.00 0.00 0.00 79 1015.3
20260902151043 28 222 9.7 11.3 0.00 0.00 0.00 78 1015.2
20260902150538 28 226 8.0 11.3 0.00 0.00 0.00 79 1015.1
20260902150033 28 216 11.3 12.9 0.00 0.00 0.00 78 1015.0
20260902145523 29 230 11.3 12.9 0.00 0.00 0.00 75 1015.1
20260902145023 28 226 12.9 14.5 0.00 0.00 0.00 77 1014.9
20260902144519 28 216 16.1 17.7 0.00 0.00 0.00 76 1015.0
20260902144014 28 218 16.1 17.7 0.00 0.00 0.00 77 1014.9
20260902143509 28 228 14.5 17.7 0.00 0.00 0.00 80 1015.0
20260902143004 28 232 12.9 14.5 0.00 0.00 0.00 80 1015.1
20260902142500 27 225 16.1 16.1 0.00 0.00 0.00 79 1015.1
20260902141955 28 224 12.9 16.1 0.00 0.00 0.00 80 1014.9
20260902141449 27 228 12.9 14.5 0.00 0.00 0.00 82 1014.9
20260902140944 27 206 11.3 14.5 0.00 0.00 0.00 83 1014.9
20260902140439 27 230 12.9 14.5 0.00 0.00 0.00 83 1014.7
20260902135939 27 234 11.3 11.3 0.00 0.00 0.00 84 1015.0
20260902135435 26 227 14.5 17.7 0.00 0.00 0.00 84 1015.0
20260902134933 26 220 12.9 14.5 0.00 0.00 0.00 85 1015.1
20260902134430 26 216 11.3 12.9 0.00 0.00 0.00 86 1014.9
20260902133924 26 222 11.3 12.9 0.00 0.00 0.00 86 1014.9
20260902133419 26 218 9.7 11.3 0.00 0.00 0.00 87 1014.8
20260902132914 26 237 12.9 14.5 0.00 0.00 0.00 86 1014.9
20260902132409 26 226 12.9 14.5 0.00 0.00 0.00 87 1015.0
20260902131904 25 238 9.7 11.3 0.00 0.00 0.00 88 1014.9
20260902131401 25 231 11.3 11.3 0.00 0.00 0.00 88 1015.1
20260902130900 25 229 14.5 16.1 0.00 0.00 0.00 88 1015.1
20260902130356 25 226 12.9 14.5 0.00 0.00 0.00 88 1014.9
20260902125851 25 206 9.7 11.3 0.00 0.00 0.00 89 1015.0
20260902125347 25 220 12.9 14.5 0.00 0.00 0.00 89 1015.1
20260902124843 25 211 9.7 11.3 0.00 0.00 0.00 90 1014.9
20260902124339 25 229 9.7 12.9 0.00 0.00 0.00 90 1014.8
20260902123833 25 218 12.9 12.9 0.00 0.00 0.00 90 1014.9
20260902123330 24 215 9.7 11.3 0.00 0.00 0.00 91 1014.7
20260902122828 24 214 6.4 9.7 0.00 0.00 0.00 91 1014.7
20260902122325 24 223 8.0 9.7 0.00 0.00 0.00 91 1014.8
20260902121823 23 225 8.0 11.3 0.00 0.00 0.00 91 1014.9
20260902121313 23 217 8.0 9.7 0.00 0.00 0.00 91 1014.8
20260902120808 23 239 6.4 8.0 0.00 0.00 0.00 92 1014.9
20260902120305 23 223 8.0 8.0 0.00 0.00 0.00 91 1015.0
20260902115759 23 209 8.0 9.7 0.00 0.00 0.00 91 1015.0
20260902115255 23 218 6.4 8.0 0.00 0.00 0.00 92 1014.9
20260902114746 23 229 8.0 9.7 0.00 0.00 0.00 92 1014.9
20260902114241 23 224 8.0 9.7 0.00 0.00 0.00 92 1014.7
20260902113736 23 228 8.0 9.7 0.00 0.00 0.00 92 1014.7
20260902113231 23 224 8.0 8.0 0.00 0.00 0.00 92 1014.8
20260902112730 22 216 8.0 9.7 0.00 0.00 0.00 92 1014.3
20260902112228 22 223 6.4 8.0 0.00 0.00 0.00 92 1014.1
20260902111723 22 231 6.4 8.0 0.00 0.00 0.00 92 1014.3
20260902111219 22 209 6.4 8.0 0.00 0.00 0.00 92 1014.6
20260902110714 22 206 4.8 8.0 0.00 0.00 0.00 92 1014.7
20260902110210 22 211 6.4 8.0 0.00 0.00 0.00 92 1014.8
20260902105710 22 223 4.8 4.8 0.00 0.00 0.00 92 1014.6
20260902105205 23 228 4.8 4.8 0.00 0.00 0.00 92 1014.9
20260902104700 23 222 6.4 8.0 0.00 0.00 0.00 92 1014.8
20260902104157 23 225 4.8 4.8 0.00 0.00 0.00 92 1014.5
20260902103655 23 217 6.4 8.0 0.00 0.00 0.00 92 1014.5
20260902103150 22 220 8.0 9.7 0.00 0.00 0.00 92 1014.7
20260902102646 22 222 8.0 9.7 0.00 0.00 0.00 92 1014.6
20260902102144 22 216 4.8 8.0 0.00 0.00 0.00 92 1014.7
20260902101639 22 208 4.8 4.8 0.00 0.00 0.00 92 1014.6
20260902101138 22 214 6.4 8.0 0.00 0.00 0.00 92 1014.7
20260902100632 22 208 6.4 8.0 0.00 0.00 0.00 92 1014.5
20260902100122 22 212 8.0 8.0 0.00 0.00 0.00 92 1014.5
20260902095621 23 212 4.8 4.8 0.00 0.00 0.00 92 1014.6
20260902095120 23 218 6.4 8.0 0.00 0.00 0.00 92 1014.3
20260902094616 23 211 6.4 8.0 0.00 0.00 0.00 92 1014.5
20260902094113 23 207 8.0 8.0 0.00 0.00 0.00 92 1014.5
20260902093611 23 211 8.0 8.0 0.00 0.00 0.00 92 1014.6
20260902093101 23 202 8.0 9.7 0.00 0.00 0.00 92 1014.3
20260902092601 23 202 8.0 9.7 0.00 0.00 0.00 92 1014.3
20260902092056 23 210 6.4 8.0 0.00 0.00 0.00 92 1014.3
20260902091551 22 199 8.0 9.7 0.00 0.00 0.00 92 1014.3
20260902091047 22 194 8.0 9.7 0.00 0.00 0.00 92 1014.5
20260902090543 22 192 8.0 9.7 0.00 0.00 0.00 92 1014.6
20260902090042 22 196 8.0 9.7 0.00 0.00 0.00 92 1014.3
20260902085536 22 200 8.0 9.7 0.00 0.00 0.00 92 1014.3
20260902085031 22 194 8.0 9.7 0.00 0.00 0.00 92 1014.5
20260902084522 22 189 6.4 8.0 0.00 0.00 0.00 92 1014.3
20260902084017 22 188 4.8 4.8 0.00 0.00 0.00 92 1014.3
20260902083513 22 191 4.8 4.8 0.00 0.00 0.00 92 1014.3
20260902083007 22 191 6.4 8.0 0.00 0.00 0.00 92 1014.1
20260902082503 22 184 8.0 9.7 0.00 0.00 0.00 92 1014.3
20260902081959 22 184 6.4 8.0 0.00 0.00 0.00 92 1014.5
20260902081455 23 181 6.4 8.0 0.00 0.00 0.00 92 1014.2
20260902080949 22 165 1.6 1.6 0.00 0.00 0.00 92 1014.2
20260902080446 22 106 0.0 0.0 0.00 0.00 0.00 92 1014.3
20260902075945 23 101 0.0 0.0 0.00 0.00 0.00 92 1014.2
20260902075441 23 109 0.0 0.0 0.00 0.00 0.00 92 1014.2
20260902074936 23 46 0.0 0.0 0.00 0.00 0.00 92 1014.0
20260902074432 22 35 0.0 1.6 0.00 0.00 0.00 92 1014.0
20260902073927 23 18 1.6 1.6 0.00 0.00 0.00 92 1014.3
20260902073423 23 155 1.6 1.6 0.00 0.00 0.00 92 1014.0
20260902072919 23 183 3.2 3.2 0.00 0.00 0.00 92 1014.0
20260902072414 23 182 4.8 4.8 0.00 0.00 0.00 92 1013.8
20260902071911 23 173 8.0 9.7 0.00 0.00 0.00 92 1013.7
20260902071410 23 188 8.0 8.0 0.00 0.00 0.00 92 1013.7
20260902070907 23 183 4.8 4.8 0.00 0.00 0.00 92 1013.8
20260902070402 23 180 4.8 4.8 0.00 0.00 0.00 92 1014.0
20260902065901 23 187 4.8 4.8 0.00 0.00 0.00 92 1013.7
20260902065355 23 180 4.8 4.8 0.00 0.00 0.00 92 1013.8
20260902064850 23 177 6.4 8.0 0.00 0.00 0.00 92 1013.7
20260902064346 22 184 8.0 8.0 0.00 0.00 0.00 92 1013.9
20260902063837 22 195 9.7 11.3 0.00 0.00 0.00 92 1013.7
20260902063336 23 194 8.0 9.7 0.00 0.00 0.00 92 1013.8
20260902062830 23 186 8.0 8.0 0.00 0.00 0.00 92 1014.0
20260902062325 23 175 6.4 8.0 0.00 0.00 0.00 92 1013.8
20260902061825 23 183 6.4 8.0 0.00 0.00 0.00 92 1014.0
20260902061320 23 177 6.4 8.0 0.00 0.00 0.00 91 1014.0
20260902060817 23 172 6.4 8.0 0.00 0.00 0.00 90 1014.0
20260902060312 23 177 3.2 3.2 0.00 0.00 0.00 90 1014.1
20260902055807 23 158 1.6 1.6 0.00 0.00 0.00 90 1014.0
20260902055258 23 160 3.2 3.2 0.00 0.00 0.00 90 1014.5
20260902054753 23 167 4.8 4.8 0.00 0.00 0.00 90 1014.6
20260902054248 23 166 4.8 4.8 0.00 0.00 0.00 90 1014.3
20260902053743 23 161 3.2 3.2 0.00 0.00 0.00 90 1014.3
20260902053242 22 176 4.8 4.8 0.00 0.00 0.00 91 1014.5
20260902052737 22 178 4.8 4.8 0.00 0.00 0.00 91 1014.3
20260902052232 22 183 3.2 3.2 0.00 0.00 0.00 90 1014.5
20260902051732 23 164 3.2 3.2 0.00 0.00 0.00 89 1014.3
20260902051226 22 165 3.2 3.2 0.00 0.00 0.00 90 1014.3
20260902050721 22 155 0.0 0.0 0.00 0.00 0.00 90 1014.5
20260902050216 23 99 0.0 0.0 0.00 0.00 0.00 89 1014.2
20260902045711 23 67 0.0 0.0 0.00 0.00 0.00 89 1014.2
20260902045207 23 73 0.0 0.0 0.00 0.00 0.00 89 1014.3
20260902044702 23 64 0.0 0.0 0.00 0.00 0.00 88 1014.2
20260902044158 22 45 0.0 0.0 0.00 0.00 0.00 89 1014.2